Seções

Recent Chat Log

Tempo Posição Nome Mensagem
Oct 21, 2021 3:46:42 pm 308  yungkami.xo they cant see stuff you write nor hear you when you're dead
Oct 21, 2021 3:46:20 pm 1,285  EGC SERVER on me bro
Oct 21, 2021 3:44:22 pm 459  PerkaPeek ромињо hteo sam knife
Oct 21, 2021 3:44:20 pm 409  is this..? real1ty bumbap global
Oct 21, 2021 3:44:15 pm 459  PerkaPeek ромињо ahahahhahahaha
Oct 21, 2021 3:43:58 pm 138  pušingMIDUUL merkis. jebo te
Oct 21, 2021 3:43:57 pm 138  pušingMIDUUL merkis. gasi
Oct 21, 2021 3:43:56 pm 138  pušingMIDUUL merkis. aj
Oct 21, 2021 3:43:41 pm 138  pušingMIDUUL merkis. a idi u kurac
Oct 21, 2021 3:43:05 pm 409  is this..? real1ty bumbap pro :hot_face"
Oct 21, 2021 3:42:39 pm 459  PerkaPeek ромињо !agents
Oct 21, 2021 3:42:34 pm 409  is this..? real1ty afk
Oct 21, 2021 3:40:59 pm 138  pušingMIDUUL merkis. ž
Oct 21, 2021 3:39:54 pm 459  PerkaPeek ромињо !switch
Oct 21, 2021 3:37:12 pm 459  PerkaPeek ромињо ahahahahhah sigurno
Oct 21, 2021 3:37:01 pm 138  pušingMIDUUL merkis. daj
Oct 21, 2021 3:36:44 pm 459  PerkaPeek ромињо low
Oct 21, 2021 3:36:42 pm 459  PerkaPeek ромињо mid
Oct 21, 2021 3:35:44 pm 409  is this..? real1ty no name more like no headphones
Oct 21, 2021 3:35:43 pm 459  PerkaPeek ромињо gh
Oct 21, 2021 3:35:42 pm 459  PerkaPeek ромињо gj
Oct 21, 2021 3:34:31 pm 409  is this..? real1ty \LOL
Oct 21, 2021 3:33:00 pm 459  PerkaPeek ромињо !calladmin
Oct 21, 2021 3:32:50 pm 248  adjuk omela me tvoja glavica
Oct 21, 2021 3:31:49 pm 459  PerkaPeek ромињо gasi
Oct 21, 2021 3:31:13 pm 409  is this..? real1ty samo hitaj shot
Oct 21, 2021 3:31:11 pm 409  is this..? real1ty nije bitno
Oct 21, 2021 3:31:05 pm 248  adjuk kako brate njih 6 nas 3
Oct 21, 2021 3:30:30 pm 990  maksov mesar 91
Oct 21, 2021 3:30:24 pm 409  is this..? real1ty i spinbot imam
Oct 21, 2021 3:30:17 pm 248  adjuk reality
Oct 21, 2021 3:30:16 pm 409  is this..? real1ty 100% brt
Oct 21, 2021 3:30:14 pm 459  PerkaPeek ромињо kuj
Oct 21, 2021 3:30:11 pm 990  maksov mesar ko
Oct 21, 2021 3:30:07 pm 248  adjuk ovaj stvarno ima aimbot
Oct 21, 2021 3:30:01 pm 459  PerkaPeek ромињо !st
Oct 21, 2021 3:29:10 pm 409  is this..? real1ty aimbot on
Oct 21, 2021 3:28:56 pm 409  is this..? real1ty !viptest
Oct 21, 2021 3:28:54 pm 409  is this..? real1ty !vip
Oct 21, 2021 3:28:50 pm 409  is this..? real1ty !vips
Oct 21, 2021 3:28:02 pm 409  is this..? real1ty !settingws
Oct 21, 2021 3:28:00 pm 409  is this..? real1ty !res
Oct 21, 2021 3:27:51 pm 409  is this..? real1ty are u new to cs
Oct 21, 2021 3:27:48 pm 409  is this..? real1ty rh+
Oct 21, 2021 3:24:32 pm 248  adjuk ajde nek neko kika ovog merkisa lik je afk svo vreme
Oct 21, 2021 3:24:03 pm 459  PerkaPeek ромињо aaa
Oct 21, 2021 3:23:57 pm 990  maksov mesar pa admin
Oct 21, 2021 3:23:47 pm 459  PerkaPeek ромињо kako to?
Oct 21, 2021 3:23:32 pm 990  maksov mesar neki debil mapu promjenio
Oct 21, 2021 3:23:08 pm 459  PerkaPeek ромињо sta je ovo bilo?
Oct 21, 2021 3:21:57 pm 248  adjuk pa ukljuci ga
Oct 21, 2021 3:20:44 pm 75  IronMike* NEMAM ZVUK
Oct 21, 2021 3:20:38 pm 459  PerkaPeek ромињо ahahahhahahaha
Oct 21, 2021 3:20:35 pm 248  adjuk gluv je
Oct 21, 2021 3:20:25 pm 990  maksov mesar isus te jebo
Oct 21, 2021 3:20:22 pm 990  maksov mesar kako ne cujes lika iza sebe
Oct 21, 2021 3:18:35 pm 459  PerkaPeek ромињо HUHUHU
Oct 21, 2021 3:18:14 pm 286  [email protected]™ | Smithex :) xD
Oct 21, 2021 3:18:10 pm 16  VENOM #KMG hahahahaha smiti
Oct 21, 2021 3:18:06 pm 459  PerkaPeek ромињо AHAHAHAHAH
Oct 21, 2021 3:18:01 pm 459  PerkaPeek ромињо AHAHHAHAHA
Oct 21, 2021 3:17:55 pm 459  PerkaPeek ромињо knifeao nas trojicu
Oct 21, 2021 3:17:40 pm 248  adjuk poso pa doso
Oct 21, 2021 3:17:20 pm 459  PerkaPeek ромињо jebo te odakle si dosao?
Oct 21, 2021 3:16:51 pm 33  e✘treme® Darkevil hahaha
Oct 21, 2021 3:16:51 pm 459  PerkaPeek ромињо bh ko idiot
Oct 21, 2021 3:16:48 pm 16  VENOM #KMG mislis ?
Oct 21, 2021 3:16:46 pm 33  e✘treme® Darkevil cituje ?
Oct 21, 2021 3:16:43 pm 33  e✘treme® Darkevil wat ?
Oct 21, 2021 3:16:36 pm 33  e✘treme® Darkevil xD
Oct 21, 2021 3:16:35 pm 459  PerkaPeek ромињо druze ovaj darkevil cituje
Oct 21, 2021 3:16:35 pm 113  ꧁kakashi꧂ nice aim
Oct 21, 2021 3:16:34 pm 248  adjuk xd
Oct 21, 2021 3:16:32 pm 189  BaZukaaboYs HAHAHAHAHHA
Oct 21, 2021 3:16:31 pm 113  ꧁kakashi꧂ xd
Oct 21, 2021 3:16:25 pm 459  PerkaPeek ромињо ahahahahha
Oct 21, 2021 3:16:17 pm 16  VENOM #KMG admin je uzviseno bice sto voli pornice
Oct 21, 2021 3:16:13 pm 194  Djomla uzas
Oct 21, 2021 3:16:12 pm 194  Djomla nema ovde admina,nikad ne dolaze
Oct 21, 2021 3:16:05 pm 33  e✘treme® Darkevil ct
Oct 21, 2021 3:16:05 pm 198  BAN ova igrica ynaci ne ynam
Oct 21, 2021 3:15:57 pm 459  PerkaPeek ромињо ko je admin?
Oct 21, 2021 3:15:50 pm 319  ✪ kitkat -41.
Oct 21, 2021 3:14:51 pm 459  PerkaPeek ромињо ima li admina?
Oct 21, 2021 3:14:35 pm 33  e✘treme® Darkevil smithex go here again pls
Oct 21, 2021 3:14:08 pm 459  PerkaPeek ромињо !info
Oct 21, 2021 3:13:35 pm 33  e✘treme® Darkevil A site
Oct 21, 2021 3:13:22 pm 459  PerkaPeek ромињо daj druze
Oct 21, 2021 3:12:56 pm 286  [email protected]™ | Smithex :) xD
Oct 21, 2021 3:12:49 pm 286  [email protected]™ | Smithex :) kako da nisi
Oct 21, 2021 3:12:49 pm 33  e✘treme® Darkevil VAC
Oct 21, 2021 3:12:48 pm 33  e✘treme® Darkevil xDDD
Oct 21, 2021 3:12:46 pm 33  e✘treme® Darkevil ????
Oct 21, 2021 3:12:12 pm 33  e✘treme® Darkevil i can drop awp for AK
Oct 21, 2021 3:11:37 pm 33  e✘treme® Darkevil merkis :DDD
Oct 21, 2021 3:11:32 pm 33  e✘treme® Darkevil lol
Oct 21, 2021 3:11:11 pm 138  pušingMIDUUL merkis. kurac ga koljem
Oct 21, 2021 3:11:10 pm 33  e✘treme® Darkevil xDDDDDDD
Oct 21, 2021 3:10:56 pm 459  PerkaPeek ромињо ma zeus je najjači
Oct 21, 2021 3:10:49 pm 138  pušingMIDUUL merkis. koljem ga
Oct 21, 2021 3:10:39 pm 459  PerkaPeek ромињо jbt
Oct 21, 2021 3:09:01 pm 113  ꧁kakashi꧂ ban sama
Oct 21, 2021 3:08:31 pm 459  PerkaPeek ромињо nego sta
Oct 21, 2021 3:08:20 pm 138  pušingMIDUUL merkis. karma
Oct 21, 2021 3:08:19 pm 138  pušingMIDUUL merkis. AHAHAHa
Oct 21, 2021 3:08:14 pm 16  VENOM #KMG mislis ijaoooo
Oct 21, 2021 3:08:12 pm 138  pušingMIDUUL merkis. iojao
Oct 21, 2021 3:08:06 pm 138  pušingMIDUUL merkis. ijao
Oct 21, 2021 3:07:31 pm 240  fullcocaineぷ ™Maree™ banana
Oct 21, 2021 3:07:25 pm 240  fullcocaineぷ ™Maree™ ct
Oct 21, 2021 3:07:15 pm 459  PerkaPeek ромињо !WS
Oct 21, 2021 3:06:26 pm 33  e✘treme® Darkevil rush apps
Oct 21, 2021 3:06:15 pm 459  PerkaPeek ромињо !WS
Oct 21, 2021 3:05:20 pm 1,980  Lil'Spooky GG
Oct 21, 2021 3:05:14 pm 189  BaZukaaboYs GG
Oct 21, 2021 3:03:58 pm 33  e✘treme® Darkevil GG go loose fast
Oct 21, 2021 3:02:52 pm 1,081  Cheif Mwbabu !GLOVES
Oct 21, 2021 3:02:38 pm 1,093  fullfоcus Sheogorath XD
Oct 21, 2021 3:02:36 pm 33  e✘treme® Darkevil xD
Oct 21, 2021 3:02:32 pm 1,081  Cheif Mwbabu !GLOVES
Oct 21, 2021 3:02:22 pm 438  CL500 $ zeljug ajde sta stojite
Oct 21, 2021 3:01:54 pm 319  ✪ kitkat y me??
Oct 21, 2021 3:01:39 pm 1,081  Cheif Mwbabu !WS
Oct 21, 2021 3:01:31 pm 1,081  Cheif Mwbabu !WS
Oct 21, 2021 3:01:30 pm 138  pušingMIDUUL merkis. prepade me
Oct 21, 2021 3:01:01 pm 1,980  Lil'Spooky uffffffffff
Oct 21, 2021 3:00:53 pm 1,980  Lil'Spooky gggggggggggg
Oct 21, 2021 3:00:53 pm 459  PerkaPeek ромињо uhuhuhuhuhuhuhu
Oct 21, 2021 3:00:45 pm 198  BAN sta
Oct 21, 2021 2:59:45 pm 459  PerkaPeek ромињо !KNIFE
Oct 21, 2021 2:59:24 pm 1,980  Lil'Spooky 1v1
Oct 21, 2021 2:59:01 pm 33  e✘treme® Darkevil yes but i dont care too much :-)
Oct 21, 2021 2:58:44 pm 16  VENOM #KMG you made a mistake
Oct 21, 2021 2:58:40 pm 1,980  Lil'Spooky same
Oct 21, 2021 2:58:28 pm 33  e✘treme® Darkevil shouldnt
Oct 21, 2021 2:58:24 pm 33  e✘treme® Darkevil i should peek again
Oct 21, 2021 2:58:15 pm 33  e✘treme® Darkevil XD yea
Oct 21, 2021 2:57:54 pm 1,081  Cheif Mwbabu !WS
Oct 21, 2021 2:57:11 pm 198  BAN u dlake
Oct 21, 2021 2:57:09 pm 198  BAN 65 u 3 sa diglom
Oct 21, 2021 2:56:16 pm 1,081  Cheif Mwbabu !WS
Oct 21, 2021 2:56:14 pm 33  e✘treme® Darkevil but blood everywhere
Oct 21, 2021 2:56:08 pm 33  e✘treme® Darkevil no hit
Oct 21, 2021 2:54:18 pm 298  NoZer0 HAHAHAHAHAHAH
Oct 21, 2021 2:52:36 pm 67  e✘treme® Minna maaaaaa da
Oct 21, 2021 2:52:08 pm 138  pušingMIDUUL merkis. MA JA
Oct 21, 2021 2:52:01 pm 298  NoZer0 kennyS za sirotinju
Oct 21, 2021 2:51:56 pm 16  VENOM #KMG jeste
Oct 21, 2021 2:51:50 pm 33  e✘treme® Darkevil kennyS
Oct 21, 2021 2:51:30 pm 431  veki ne vidi chat
Oct 21, 2021 2:51:28 pm 431  veki moras preko mikrofona da mu kazes
Oct 21, 2021 2:51:08 pm 138  pušingMIDUUL merkis. lower
Oct 21, 2021 2:51:05 pm 138  pušingMIDUUL merkis. ct jedan
Oct 21, 2021 2:50:52 pm 33  e✘treme® Darkevil AAAAA
Oct 21, 2021 2:50:17 pm 138  pušingMIDUUL merkis. !w
Oct 21, 2021 2:50:08 pm 138  pušingMIDUUL merkis. a koji su
Oct 21, 2021 2:49:46 pm 33  e✘treme® Darkevil xD
Oct 21, 2021 2:47:57 pm 33  e✘treme® Darkevil nooo
Oct 21, 2021 2:47:36 pm 113  ꧁kakashi꧂ no
Oct 21, 2021 2:47:15 pm 298  NoZer0 ima ping 500
Oct 21, 2021 2:46:58 pm 113  ꧁kakashi꧂ ping
Oct 21, 2021 2:46:57 pm 229  retarded marex kako bre
Oct 21, 2021 2:46:56 pm 229  retarded marex hAHHAHHAHA
Oct 21, 2021 2:46:54 pm 229  retarded marex HAHHAHAHAHHA
Oct 21, 2021 2:46:53 pm 229  retarded marex HAHAHHAHAHAH
Oct 21, 2021 2:46:52 pm 229  retarded marex HAHHAHAHAH
Oct 21, 2021 2:46:51 pm 229  retarded marex HAHHAHAH
Oct 21, 2021 2:46:51 pm 33  e✘treme® Darkevil nice laggs
Oct 21, 2021 2:46:18 pm 33  e✘treme® Darkevil short
Oct 21, 2021 2:44:55 pm 138  pušingMIDUUL merkis. lowe4r
Oct 21, 2021 2:44:51 pm 138  pušingMIDUUL merkis. RUSHA B
Oct 21, 2021 2:44:50 pm 138  pušingMIDUUL merkis. SVAKU RUNDU
Oct 21, 2021 2:44:48 pm 138  pušingMIDUUL merkis. VIDI OVOG
Oct 21, 2021 2:44:02 pm 33  e✘treme® Darkevil short
Oct 21, 2021 2:42:28 pm 33  e✘treme® Darkevil no medals and 100%knowledge
Oct 21, 2021 2:37:54 pm 298  NoZer0 !snow
Oct 21, 2021 2:37:50 pm 298  NoZer0 !snov
Oct 21, 2021 2:37:47 pm 298  NoZer0 !fps
Oct 21, 2021 2:37:33 pm 126  [email protected] to clearr man haha
Oct 21, 2021 2:37:29 pm 229  retarded marex ti ces lucky6 da mi igras danas
Oct 21, 2021 2:36:44 pm 138  pušingMIDUUL merkis. 75 u 5 jebem ti mac
Oct 21, 2021 2:36:32 pm 33  e✘treme® Darkevil np :)
Oct 21, 2021 2:36:10 pm 33  e✘treme® Darkevil xD
Oct 21, 2021 2:35:54 pm 67  e✘treme® Minna wtf
Oct 21, 2021 2:35:47 pm 126  [email protected] extreme darkvil retarded
Oct 21, 2021 2:35:20 pm 33  e✘treme® Darkevil take mid
Oct 21, 2021 2:35:14 pm 126  [email protected] darkvi;k to sure retrrde
Oct 21, 2021 2:34:15 pm 126  [email protected] lol
Oct 21, 2021 2:34:09 pm 33  e✘treme® Darkevil sure
Oct 21, 2021 2:34:04 pm 126  [email protected] ok mad
Oct 21, 2021 2:33:55 pm 33  e✘treme® Darkevil xD lmao
Oct 21, 2021 2:33:46 pm 126  [email protected] minnaaaaa lol
Oct 21, 2021 2:32:10 pm 240  fullcocaineぷ ™Maree™ -7 in 3
Oct 21, 2021 2:32:10 pm 33  e✘treme® Darkevil lol
Oct 21, 2021 2:30:21 pm 138  pušingMIDUUL merkis. HAHAHHAA
Oct 21, 2021 2:29:44 pm 126  [email protected] ahha
Oct 21, 2021 2:28:35 pm 16  VENOM #KMG hi
Oct 21, 2021 2:28:31 pm 229  retarded marex privet bratan
Oct 21, 2021 2:28:26 pm 67  e✘treme® Minna elo
Oct 21, 2021 2:28:14 pm 33  e✘treme® Darkevil hello

Opções de Admin: